Location: Tabor
(49.4170°N, 14.6670°E)
Time: 00:41:42
(UTC+02:00)

ISS - Visible Passes

Search period start: 26 September 2023 00:00
Search period end: 06 October 2023 00:00
Orbit: 414 x 421 km, 51.6° (Epoch: 25 September)

Date Brightness Start Highest point End Pass type
(mag) Time Alt. Az. Time Alt. Az. Time Alt. Az.
26 Sep -3.7 20:04:44 10° WNW 20:08:05 72° NNE 20:09:49 26° E visible
26 Sep -1.1 21:41:39 10° W 21:42:44 18° W 21:42:44 18° W visible
27 Sep -3.5 19:16:36 10° WNW 19:19:55 61° N 19:23:14 10° E visible
27 Sep -3.2 20:53:26 10° WNW 20:56:27 49° SW 20:56:27 49° SW visible
28 Sep -3.7 20:05:14 10° WNW 20:08:34 71° SSW 20:10:11 28° SE visible
28 Sep -0.7 21:42:41 10° W 21:43:06 12° WSW 21:43:06 12° WSW visible
29 Sep -3.8 19:17:02 10° WNW 19:20:23 87° NNE 19:23:44 10° ESE visible
29 Sep -2.0 20:54:05 10° W 20:56:50 24° SW 20:56:50 24° SW visible
30 Sep -2.6 20:05:40 10° W 20:08:46 36° SSW 20:10:37 19° SSE visible
01 Oct -3.1 19:17:19 10° WNW 19:20:35 52° SSW 19:23:50 10° SE visible
01 Oct -0.9 20:55:37 10° WSW 20:56:44 11° SW 20:57:23 11° SSW visible
02 Oct -1.3 20:06:21 10° W 20:08:38 17° SW 20:10:56 10° S visible
03 Oct -1.8 19:17:38 10° W 19:20:28 26° SW 19:23:17 10° SSE visible
05 Oct -0.7 19:18:41 10° WSW 19:20:02 12° SW 19:21:22 10° SSW visible
